Time,TemperatureF,DewpointF,PressureIn,WindDirection,WindDirectionDegrees,WindSpeedMPH,WindSpeedGustMPH,Humidity,HourlyPrecipIn,Conditions,Clouds,dailyrainin,SoftwareType,DateUTC
2014-01-05 00:00:00,25.9,14.0,30.53,WSW,250,1.0,7.0,62,0.00,,,0.00,weatherlink.com 1.10,2014-01-05 05:00:00,
2014-01-05 00:15:00,25.7,15.0,30.53,SSW,211,0.0,4.0,63,0.00,,,0.00,weatherlink.com 1.10,2014-01-05 05:15:00,
2014-01-05 00:30:00,26.0,15.0,30.53,West,263,1.0,5.0,63,0.00,,,0.00,weatherlink.com 1.10,2014-01-05 05:30:00,
2014-01-05 00:45:00,25.7,15.0,30.53,SSW,212,0.0,2.0,64,0.00,,,0.00,weatherlink.com 1.10,2014-01-05 05:45:00,
2014-01-05 01:00:00,26.0,15.0,30.53,SW,236,0.0,4.0,64,0.00,,,0.00,weatherlink.com 1.10,2014-01-05 06:00:00,
2014-01-05 01:15:00,26.2,15.0,30.54,SW,219,2.0,3.0,63,0.00,,,0.00,weatherlink.com 1.10,2014-01-05 06:15:00,
2014-01-05 01:31:00,26.3,16.0,30.53,SW,219,0.0,1.0,64,0.00,,,0.00,weatherlink.com 1.10,2014-01-05 06:31:00,
2014-01-05 01:46:00,26.5,16.0,30.54,WSW,247,1.0,5.0,64,0.00,,,0.00,weatherlink.com 1.10,2014-01-05 06:46:00,
2014-01-05 02:01:00,26.4,16.0,30.54,WSW,239,0.0,4.0,65,0.00,,,0.00,weatherlink.com 1.10,2014-01-05 07:01:00,
2014-01-05 02:16:00,26.1,16.0,30.54,SSW,210,1.0,1.0,66,0.00,,,0.00,weatherlink.com 1.10,2014-01-05 07:16:00,
2014-01-05 02:31:00,24.4,16.0,30.54,NNE,19,0.0,4.0,70,0.00,,,0.00,weatherlink.com 1.10,2014-01-05 07:31:00,
2014-01-05 02:46:00,23.2,16.0,30.53,NNE,19,0.0,0.0,73,0.00,,,0.00,weatherlink.com 1.10,2014-01-05 07:46:00,
2014-01-05 03:01:00,24.6,16.0,30.54,SW,231,1.0,4.0,71,0.00,,,0.00,weatherlink.com 1.10,2014-01-05 08:01:00,
2014-01-05 03:16:00,24.8,17.0,30.54,SW,229,0.0,1.0,72,0.00,,,0.00,weatherlink.com 1.10,2014-01-05 08:16:00,
2014-01-05 03:31:00,24.8,17.0,30.53,SE,137,0.0,0.0,72,0.00,,,0.00,weatherlink.com 1.10,2014-01-05 08:31:00,
2014-01-05 03:46:00,24.2,17.0,30.52,East,90,1.0,2.0,74,0.00,,,0.00,weatherlink.com 1.10,2014-01-05 08:46:00,
2014-01-05 04:01:00,24.0,17.0,30.53,East,96,0.0,2.0,74,0.00,,,0.00,weatherlink.com 1.10,2014-01-05 09:01:00,
2014-01-05 04:16:00,22.8,17.0,30.52,ESE,107,0.0,1.0,77,0.00,,,0.00,weatherlink.com 1.10,2014-01-05 09:16:00,
2014-01-05 04:31:00,22.5,16.0,30.51,ESE,107,0.0,1.0,76,0.00,,,0.00,weatherlink.com 1.10,2014-01-05 09:31:00,
2014-01-05 04:46:00,22.2,16.0,30.51,ESE,113,0.0,1.0,77,0.00,,,0.00,weatherlink.com 1.10,2014-01-05 09:46:00,
2014-01-05 05:01:00,22.2,16.0,30.51,ESE,113,0.0,0.0,77,0.00,,,0.00,weatherlink.com 1.10,2014-01-05 10:01:00,
2014-01-05 05:16:00,21.6,16.0,30.51,SE,130,0.0,0.0,78,0.00,,,0.00,weatherlink.com 1.10,2014-01-05 10:16:00,
2014-01-05 05:31:00,21.6,15.0,30.51,SE,130,0.0,0.0,77,0.00,,,0.00,weatherlink.com 1.10,2014-01-05 10:31:00,
2014-01-05 05:46:00,21.3,16.0,30.51,NE,44,1.0,2.0,79,0.00,,,0.00,weatherlink.com 1.10,2014-01-05 10:46:00,
2014-01-05 06:01:00,20.5,16.0,30.50,ESE,107,0.0,4.0,83,0.00,,,0.00,weatherlink.com 1.10,2014-01-05 11:01:00,
2014-01-05 06:16:00,20.6,17.0,30.49,ESE,105,1.0,1.0,84,0.00,,,0.00,weatherlink.com 1.10,2014-01-05 11:16:00,
2014-01-05 06:31:00,21.1,16.0,30.49,East,100,0.0,1.0,82,0.00,,,0.00,weatherlink.com 1.10,2014-01-05 11:31:00,
2014-01-05 06:46:00,20.9,16.0,30.49,East,84,1.0,2.0,82,0.00,,,0.00,weatherlink.com 1.10,2014-01-05 11:46:00,
2014-01-05 07:01:00,20.1,16.0,30.50,West,269,2.0,2.0,85,0.00,,,0.00,weatherlink.com 1.10,2014-01-05 12:01:00,
2014-01-05 07:16:00,20.7,17.0,30.50,SW,225,0.0,2.0,85,0.00,,,0.00,weatherlink.com 1.10,2014-01-05 12:16:00,
2014-01-05 07:31:00,22.4,18.0,30.50,SW,226,1.0,1.0,83,0.00,,,0.00,weatherlink.com 1.10,2014-01-05 12:31:00,
2014-01-05 07:46:00,23.1,19.0,30.50,SW,221,0.0,1.0,83,0.00,,,0.00,weatherlink.com 1.10,2014-01-05 12:46:00,
2014-01-05 08:01:00,23.2,19.0,30.50,NNW,346,0.0,5.0,84,0.00,,,0.00,weatherlink.com 1.10,2014-01-05 13:01:00,
2014-01-05 08:16:00,23.7,20.0,30.49,NNW,340,2.0,2.0,84,0.00,,,0.00,weatherlink.com 1.10,2014-01-05 13:16:00,
2014-01-05 08:31:00,24.7,21.0,30.50,SSW,200,0.0,0.0,85,0.00,,,0.00,weatherlink.com 1.10,2014-01-05 13:31:00,
2014-01-05 08:46:00,25.3,21.0,30.48,NE,51,1.0,6.0,84,0.00,,,0.00,weatherlink.com 1.10,2014-01-05 13:46:00,
2014-01-05 09:01:00,26.1,22.0,30.48,NE,55,0.0,1.0,83,0.00,,,0.00,weatherlink.com 1.10,2014-01-05 14:01:00,
2014-01-05 09:16:00,26.6,22.0,30.48,NW,316,2.0,2.0,84,0.00,,,0.00,weatherlink.com 1.10,2014-01-05 14:16:00,
2014-01-05 09:31:00,27.2,23.0,30.47,SSE,153,0.0,2.0,85,0.00,,,0.00,weatherlink.com 1.10,2014-01-05 14:31:00,
2014-01-05 09:46:00,28.2,24.0,30.46,ENE,73,0.0,2.0,85,0.00,,,0.00,weatherlink.com 1.10,2014-01-05 14:46:00,
2014-01-05 10:01:00,28.8,25.0,30.46,NW,325,1.0,2.0,85,0.00,,,0.00,weatherlink.com 1.10,2014-01-05 15:01:00,
2014-01-05 10:16:00,29.2,25.0,30.45,NNW,328,0.0,1.0,85,0.00,,,0.00,weatherlink.com 1.10,2014-01-05 15:16:00,
2014-01-05 10:31:00,29.5,26.0,30.46,NNW,328,0.0,1.0,87,0.02,,,0.02,weatherlink.com 1.10,2014-01-05 15:31:00,
2014-01-05 10:46:00,30.0,28.0,30.45,East,98,0.0,4.0,90,0.04,,,0.04,weatherlink.com 1.10,2014-01-05 15:46:00,
2014-01-05 11:02:00,30.2,28.0,30.44,NNE,29,0.0,4.0,91,0.07,,,0.07,weatherlink.com 1.10,2014-01-05 16:02:00,
2014-01-05 11:17:00,30.5,29.0,30.43,NNE,29,0.0,2.0,92,0.09,,,0.09,weatherlink.com 1.10,2014-01-05 16:17:00,
2014-01-05 11:32:00,31.2,29.0,30.41,NE,38,1.0,3.0,93,0.08,,,0.10,weatherlink.com 1.10,2014-01-05 16:32:00,
2014-01-05 11:47:00,31.7,30.0,30.40,NNW,341,1.0,4.0,94,0.06,,,0.10,weatherlink.com 1.10,2014-01-05 16:47:00,
2014-01-05 12:02:00,32.2,31.0,30.39,NNW,346,0.0,1.0,94,0.02,,,0.10,weatherlink.com 1.10,2014-01-05 17:02:00,
2014-01-05 12:17:00,32.7,31.0,30.37,NNW,346,1.0,2.0,94,0.00,,,0.10,weatherlink.com 1.10,2014-01-05 17:17:00,
2014-01-05 12:32:00,32.8,31.0,30.36,ENE,67,0.0,4.0,94,0.00,,,0.10,weatherlink.com 1.10,2014-01-05 17:32:00,
2014-01-05 12:47:00,33.4,32.0,30.35,NNE,17,1.0,3.0,94,0.00,,,0.10,weatherlink.com 1.10,2014-01-05 17:47:00,
2014-01-05 13:02:00,33.9,33.0,30.33,NNW,346,0.0,1.0,95,0.00,,,0.10,weatherlink.com 1.10,2014-01-05 18:02:00,
2014-01-05 13:17:00,34.4,33.0,30.32,NNW,346,1.0,2.0,95,0.00,,,0.10,weatherlink.com 1.10,2014-01-05 18:17:00,
2014-01-05 13:32:00,34.8,34.0,30.30,North,355,1.0,3.0,95,0.01,,,0.11,weatherlink.com 1.10,2014-01-05 18:32:00,
2014-01-05 13:47:00,35.0,34.0,30.30,NNE,28,1.0,6.0,95,0.01,,,0.11,weatherlink.com 1.10,2014-01-05 18:47:00,
2014-01-05 14:02:00,35.5,34.0,30.31,NE,46,0.0,2.0,95,0.01,,,0.11,weatherlink.com 1.10,2014-01-05 19:02:00,
2014-01-05 14:17:00,35.3,34.0,30.30,East,80,3.0,6.0,94,0.01,,,0.11,weatherlink.com 1.10,2014-01-05 19:17:00,
2014-01-05 14:32:00,34.3,33.0,30.29,East,91,2.0,6.0,94,0.01,,,0.12,weatherlink.com 1.10,2014-01-05 19:32:00,
2014-01-05 14:47:00,33.8,33.0,30.29,ENE,76,1.0,3.0,95,0.04,,,0.15,weatherlink.com 1.10,2014-01-05 19:47:00,
2014-01-05 15:02:00,33.6,32.0,30.28,ENE,74,1.0,4.0,95,0.05,,,0.16,weatherlink.com 1.10,2014-01-05 20:02:00,
2014-01-05 15:17:00,34.1,33.0,30.27,ENE,75,1.0,2.0,95,0.06,,,0.17,weatherlink.com 1.10,2014-01-05 20:17:00,
2014-01-05 15:32:00,33.9,33.0,30.26,ENE,71,1.0,3.0,95,0.07,,,0.19,weatherlink.com 1.10,2014-01-05 20:32:00,
2014-01-05 15:47:00,33.7,33.0,30.25,NE,38,0.0,5.0,95,0.05,,,0.20,weatherlink.com 1.10,2014-01-05 20:47:00,
2014-01-05 16:02:00,33.7,33.0,30.25,ENE,60,1.0,5.0,95,0.04,,,0.21,weatherlink.com 1.10,2014-01-05 21:02:00,
2014-01-05 16:17:00,33.8,33.0,30.25,ENE,64,3.0,5.0,96,0.06,,,0.23,weatherlink.com 1.10,2014-01-05 21:17:00,
2014-01-05 16:32:00,33.8,33.0,30.24,East,80,4.0,8.0,96,0.05,,,0.24,weatherlink.com 1.10,2014-01-05 21:32:00,
2014-01-05 16:47:00,33.7,33.0,30.24,NE,35,2.0,4.0,96,0.06,,,0.26,weatherlink.com 1.10,2014-01-05 21:47:00,
2014-01-05 17:02:00,33.4,32.0,30.24,ENE,75,3.0,4.0,95,0.09,,,0.30,weatherlink.com 1.10,2014-01-05 22:02:00,
2014-01-05 17:17:00,33.3,32.0,30.21,ENE,69,1.0,5.0,96,0.08,,,0.31,weatherlink.com 1.10,2014-01-05 22:17:00,
2014-01-05 17:32:00,32.9,32.0,30.21,NE,43,2.0,3.0,95,0.07,,,0.31,weatherlink.com 1.10,2014-01-05 22:32:00,
2014-01-05 17:47:00,32.8,32.0,30.19,North,355,1.0,4.0,96,0.05,,,0.31,weatherlink.com 1.10,2014-01-05 22:47:00,
2014-01-05 18:02:00,32.9,32.0,30.19,East,80,2.0,3.0,96,0.02,,,0.32,weatherlink.com 1.10,2014-01-05 23:02:00,
2014-01-05 18:18:00,32.9,32.0,30.18,ENE,62,1.0,5.0,96,0.02,,,0.33,weatherlink.com 1.10,2014-01-05 23:18:00,
2014-01-05 18:33:00,32.7,32.0,30.18,ENE,69,1.0,5.0,96,0.04,,,0.35,weatherlink.com 1.10,2014-01-05 23:33:00,
2014-01-05 18:48:00,32.8,32.0,30.18,ENE,67,1.0,6.0,96,0.06,,,0.37,weatherlink.com 1.10,2014-01-05 23:48:00,
2014-01-05 19:03:00,32.6,32.0,30.16,ESE,107,3.0,5.0,96,0.06,,,0.38,weatherlink.com 1.10,2014-01-06 00:03:00,
2014-01-05 19:18:00,32.6,32.0,30.14,East,92,0.0,2.0,96,0.06,,,0.39,weatherlink.com 1.10,2014-01-06 00:18:00,
2014-01-05 19:33:00,32.5,32.0,30.13,North,5,0.0,5.0,96,0.04,,,0.39,weatherlink.com 1.10,2014-01-06 00:33:00,
2014-01-05 19:48:00,32.5,32.0,30.13,North,5,0.0,2.0,96,0.02,,,0.39,weatherlink.com 1.10,2014-01-06 00:48:00,
2014-01-05 20:03:00,32.6,32.0,30.12,ENE,75,2.0,4.0,96,0.01,,,0.39,weatherlink.com 1.10,2014-01-06 01:03:00,
2014-01-05 20:18:00,32.6,32.0,30.11,ENE,66,0.0,2.0,96,0.00,,,0.39,weatherlink.com 1.10,2014-01-06 01:18:00,
2014-01-05 20:33:00,32.8,32.0,30.10,ENE,66,0.0,1.0,96,0.00,,,0.39,weatherlink.com 1.10,2014-01-06 01:33:00,
2014-01-05 20:48:00,32.6,32.0,30.08,NE,52,1.0,4.0,96,0.00,,,0.39,weatherlink.com 1.10,2014-01-06 01:48:00,
2014-01-05 21:03:00,32.5,32.0,30.07,ENE,67,0.0,2.0,96,0.00,,,0.39,weatherlink.com 1.10,2014-01-06 02:03:00,
2014-01-05 21:18:00,32.6,32.0,30.06,ENE,67,0.0,2.0,96,0.00,,,0.39,weatherlink.com 1.10,2014-01-06 02:18:00,
2014-01-05 21:33:00,33.0,32.0,30.04,ENE,67,0.0,1.0,96,0.00,,,0.39,weatherlink.com 1.10,2014-01-06 02:33:00,
2014-01-05 21:48:00,32.9,32.0,30.03,NE,47,0.0,2.0,96,0.00,,,0.39,weatherlink.com 1.10,2014-01-06 02:48:00,
2014-01-05 22:03:00,32.9,32.0,30.02,NE,47,0.0,1.0,96,0.00,,,0.39,weatherlink.com 1.10,2014-01-06 03:03:00,
2014-01-05 22:18:00,33.2,32.0,30.00,ENE,78,0.0,2.0,96,0.00,,,0.39,weatherlink.com 1.10,2014-01-06 03:18:00,
2014-01-05 22:33:00,33.4,32.0,29.98,WNW,300,4.0,4.0,96,0.00,,,0.39,weatherlink.com 1.10,2014-01-06 03:33:00,
2014-01-05 22:48:00,33.5,33.0,29.97,NW,306,4.0,5.0,96,0.00,,,0.39,weatherlink.com 1.10,2014-01-06 03:48:00,
2014-01-05 23:03:00,33.1,32.0,29.97,SE,141,1.0,2.0,96,0.00,,,0.39,weatherlink.com 1.10,2014-01-06 04:03:00,
2014-01-05 23:18:00,34.1,33.0,29.95,SE,140,0.0,0.0,96,0.00,,,0.39,weatherlink.com 1.10,2014-01-06 04:18:00,
2014-01-05 23:33:00,35.2,35.0,29.94,ESE,111,1.0,4.0,97,0.00,,,0.39,weatherlink.com 1.10,2014-01-06 04:33:00,
2014-01-05 23:48:00,40.5,40.0,29.93,SW,229,4.0,5.0,97,0.00,,,0.39,weatherlink.com 1.10,2014-01-06 04:48:00,